Meath Environmental Platform

Observations for Trim Patrick St

Time AQI Temp °C Hum % Pres Pa CO μg/m³ H₂S μg/m³ NO μg/m³ NO₂ μg/m³ O₃ μg/m³ SO₂ μg/m³ PM1 μg/m³ PM2.5 μg/m³ PM10 μg/m³
Wednesday 5 August 2026
06:43 2 14.9 74 38,460 0.18 0 2.99 8.3 55.09 0 2 5.64 6.21
06:42 2 14.9 74 38,460 0.16 0 2.89 9.17 53.03 0 2 5.64 6.21
06:41 2 14.9 74 38,460 0.16 0 2.83 5.68 43 0 2 4.92 5.42
06:40 2 14.9 74 38,460 0.17 0 2.87 8.48 53.55 0 2 4.92 5.42
06:39 2 14.9 74 38,460 0.16 0 2.83 7.15 52.15 0 2 4.92 5.41
06:38 2 14.9 74 38,460 0.17 0 2.83 6.4 44.68 0 2 4.92 5.42
06:37 2 14.9 74 38,460 0.17 0 2.9 8.65 53.92 0 2 4.93 5.42
06:36 2 14.9 74 38,460 0.16 0 2.95 6.96 50.11 0 2 4.92 5.42
06:35 2 14.9 74 38,460 0.17 0 2.87 7.91 55.16 0 2 4.93 5.42
06:34 2 14.8 74 38,460 0.16 0 2.89 6.3 46.87 0 2 4.92 5.41
06:33 2 14.9 74 38,460 0.17 0 2.88 7.34 51.33 0 2 4.92 5.41
06:32 2 14.9 74 38,460 0.16 0 2.88 7.54 53.35 0 2 4.92 5.41
06:31 2 14.9 74 38,460 0.17 0 2.99 7.35 47.51 0 2 4.91 5.4
06:30 2 14.9 74 38,460 0.16 0 3.06 7.74 48.36 0 2 4.92 5.41
06:29 2 14.9 74 38,460 0.16 0 3.08 6.56 49.98 0 2 4.91 5.4
06:28 2 14.9 74 38,460 0.16 0 3.07 7.56 52.26 0 2 4.91 5.4
06:27 2 14.9 74 38,460 0.17 0 3.05 7.95 49.22 0 2 4.91 5.4
06:26 2 14.9 74 38,460 0.16 0 2.83 6.82 50.73 0 2 4.91 5.4
06:25 2 14.9 74 38,460 0.15 0 2.76 6.98 49.3 0 2 4.91 5.4
06:23 2 14.9 74 38,460 0.16 0 2.81 7.76 49.89 0 2 4.9 5.39